Time,TemperatureF,DewpointF,PressureIn,WindDirection,WindDirectionDegrees,WindSpeedMPH,WindSpeedGustMPH,Humidity,HourlyPrecipIn,Conditions,Clouds,dailyrainin,SolarRadiationWatts/m^2,SoftwareType,DateUTC
2013-02-04 00:01:00,69.0,53.0,-100.00,NE,40,17.0,27.0,57,0.00,,,0.00,0.000000,,2013-02-04 10:01:00,
2013-02-04 00:11:00,69.0,53.0,-100.00,NE,40,17.0,27.0,57,0.00,,,0.00,0.000000,,2013-02-04 10:11:00,
2013-02-04 00:21:00,69.0,53.0,-100.00,NE,40,17.0,27.0,57,0.00,,,0.00,0.000000,,2013-02-04 10:21:00,
2013-02-04 00:32:00,69.0,53.0,-100.00,NE,40,17.0,27.0,57,0.00,,,0.00,0.000000,,2013-02-04 10:32:00,
2013-02-04 00:41:00,69.0,53.0,-100.00,NE,40,17.0,27.0,57,0.00,,,0.00,0.000000,,2013-02-04 10:41:00,
2013-02-04 01:01:00,71.0,55.0,-100.00,North,3,27.0,47.0,57,0.00,,,0.00,0.000000,,2013-02-04 11:01:00,
2013-02-04 01:11:00,71.0,55.0,-100.00,North,3,27.0,47.0,57,0.00,,,0.00,0.000000,,2013-02-04 11:11:00,
2013-02-04 01:22:00,71.0,55.0,-100.00,North,3,27.0,47.0,57,0.00,,,0.00,0.000000,,2013-02-04 11:22:00,
2013-02-04 01:32:00,71.0,55.0,-100.00,North,3,27.0,47.0,57,0.00,,,0.00,0.000000,,2013-02-04 11:32:00,
2013-02-04 01:42:00,71.0,55.0,-100.00,North,3,27.0,47.0,57,0.00,,,0.00,0.000000,,2013-02-04 11:42:00,
2013-02-04 02:02:00,71.0,52.0,-100.00,North,353,27.0,46.0,51,0.00,,,0.00,0.000000,,2013-02-04 12:02:00,
2013-02-04 02:12:00,71.0,52.0,-100.00,North,353,27.0,46.0,51,0.00,,,0.00,0.000000,,2013-02-04 12:12:00,
2013-02-04 02:21:00,71.0,52.0,-100.00,North,353,27.0,46.0,51,0.00,,,0.00,0.000000,,2013-02-04 12:21:00,
2013-02-04 02:32:00,71.0,52.0,-100.00,North,353,27.0,46.0,51,0.00,,,0.00,0.000000,,2013-02-04 12:32:00,
2013-02-04 02:42:00,71.0,52.0,-100.00,North,353,27.0,46.0,51,0.00,,,0.00,0.000000,,2013-02-04 12:42:00,
2013-02-04 03:02:00,72.0,52.0,-100.00,North,8,27.0,44.0,49,0.00,,,0.00,0.000000,,2013-02-04 13:02:00,
2013-02-04 03:11:00,72.0,52.0,-100.00,North,8,27.0,44.0,49,0.00,,,0.00,0.000000,,2013-02-04 13:11:00,
2013-02-04 03:21:00,72.0,52.0,-100.00,North,8,27.0,44.0,49,0.00,,,0.00,0.000000,,2013-02-04 13:21:00,
2013-02-04 03:32:00,72.0,52.0,-100.00,North,8,27.0,44.0,49,0.00,,,0.00,0.000000,,2013-02-04 13:32:00,
2013-02-04 03:41:00,72.0,52.0,-100.00,North,8,27.0,44.0,49,0.00,,,0.00,0.000000,,2013-02-04 13:41:00,
2013-02-04 04:03:00,68.0,54.0,-100.00,NNE,21,25.0,44.0,60,0.00,,,0.00,0.000000,,2013-02-04 14:03:00,
2013-02-04 04:11:00,68.0,54.0,-100.00,NNE,21,25.0,44.0,60,0.00,,,0.00,0.000000,,2013-02-04 14:11:00,
2013-02-04 04:21:00,68.0,54.0,-100.00,NNE,21,25.0,44.0,60,0.00,,,0.00,0.000000,,2013-02-04 14:21:00,
2013-02-04 04:32:00,68.0,54.0,-100.00,NNE,21,25.0,44.0,60,0.00,,,0.00,0.000000,,2013-02-04 14:32:00,
2013-02-04 04:41:00,68.0,54.0,-100.00,NNE,21,25.0,44.0,60,0.00,,,0.00,0.000000,,2013-02-04 14:41:00,
2013-02-04 05:03:00,70.0,56.0,-100.00,North,10,29.0,42.0,62,0.00,,,0.00,0.000000,,2013-02-04 15:03:00,
2013-02-04 05:12:00,70.0,56.0,-100.00,North,10,29.0,42.0,62,0.00,,,0.00,0.000000,,2013-02-04 15:12:00,
2013-02-04 05:23:00,70.0,56.0,-100.00,North,10,29.0,42.0,62,0.00,,,0.00,0.000000,,2013-02-04 15:23:00,
2013-02-04 05:33:00,70.0,56.0,-100.00,North,10,29.0,42.0,62,0.00,,,0.00,0.000000,,2013-02-04 15:33:00,
2013-02-04 05:42:00,70.0,56.0,-100.00,North,10,29.0,42.0,62,0.00,,,0.00,0.000000,,2013-02-04 15:42:00,
2013-02-04 06:02:00,69.0,55.0,-100.00,NNE,19,25.0,44.0,62,0.00,,,0.00,0.000000,,2013-02-04 16:02:00,
2013-02-04 06:11:00,69.0,55.0,-100.00,NNE,19,25.0,44.0,62,0.00,,,0.00,0.000000,,2013-02-04 16:11:00,
2013-02-04 06:22:00,69.0,55.0,-100.00,NNE,19,25.0,44.0,62,0.00,,,0.00,0.000000,,2013-02-04 16:22:00,
2013-02-04 06:32:00,69.0,55.0,-100.00,NNE,19,25.0,44.0,62,0.00,,,0.00,0.000000,,2013-02-04 16:32:00,
2013-02-04 06:42:00,69.0,55.0,-100.00,NNE,19,25.0,44.0,62,0.00,,,0.00,0.000000,,2013-02-04 16:42:00,
2013-02-04 08:03:00,70.0,56.0,-100.00,NNE,22,24.0,36.0,61,-99.99,,,0.00,49.000000,,2013-02-04 18:03:00,
2013-02-04 08:11:00,70.0,56.0,-100.00,NNE,22,24.0,36.0,61,-99.99,,,0.00,49.000000,,2013-02-04 18:11:00,
2013-02-04 08:22:00,70.0,56.0,-100.00,NNE,22,24.0,36.0,61,-99.99,,,0.00,49.000000,,2013-02-04 18:22:00,
2013-02-04 08:31:00,70.0,56.0,-100.00,NNE,22,24.0,36.0,61,-99.99,,,0.00,49.000000,,2013-02-04 18:31:00,
2013-02-04 08:41:00,70.0,56.0,-100.00,NNE,22,24.0,36.0,61,-99.99,,,0.00,49.000000,,2013-02-04 18:41:00,
2013-02-04 09:11:00,75.0,59.0,-100.00,NE,38,22.0,37.0,57,0.00,,,-99.99,310.000000,,2013-02-04 19:11:00,
2013-02-04 09:22:00,75.0,59.0,-100.00,NE,38,22.0,37.0,57,0.00,,,-99.99,310.000000,,2013-02-04 19:22:00,
2013-02-04 09:31:00,75.0,59.0,-100.00,NE,38,22.0,37.0,57,0.00,,,-99.99,310.000000,,2013-02-04 19:31:00,
2013-02-04 09:41:00,75.0,59.0,-100.00,NE,38,22.0,37.0,57,0.00,,,-99.99,310.000000,,2013-02-04 19:41:00,
2013-02-04 10:02:00,77.0,59.0,-100.00,NE,35,24.0,37.0,53,0.00,,,0.00,531.000000,,2013-02-04 20:02:00,
2013-02-04 10:12:00,77.0,59.0,-100.00,NE,35,24.0,37.0,53,0.00,,,0.00,531.000000,,2013-02-04 20:12:00,
2013-02-04 10:21:00,77.0,59.0,-100.00,NE,35,24.0,37.0,53,0.00,,,0.00,531.000000,,2013-02-04 20:21:00,
2013-02-04 10:32:00,77.0,59.0,-100.00,NE,35,24.0,37.0,53,0.00,,,0.00,531.000000,,2013-02-04 20:32:00,
2013-02-04 10:42:00,77.0,59.0,-100.00,NE,35,24.0,37.0,53,0.00,,,0.00,531.000000,,2013-02-04 20:42:00,
2013-02-04 11:02:00,78.0,57.0,-100.00,NE,40,23.0,39.0,48,0.00,,,0.00,709.000000,,2013-02-04 21:02:00,
2013-02-04 11:11:00,78.0,57.0,-100.00,NE,40,23.0,39.0,48,0.00,,,0.00,709.000000,,2013-02-04 21:11:00,
2013-02-04 11:22:00,78.0,57.0,-100.00,NE,40,23.0,39.0,48,0.00,,,0.00,709.000000,,2013-02-04 21:22:00,
2013-02-04 11:31:00,78.0,57.0,-100.00,NE,40,23.0,39.0,48,0.00,,,0.00,709.000000,,2013-02-04 21:31:00,
2013-02-04 11:42:00,78.0,57.0,-100.00,NE,40,23.0,39.0,48,0.00,,,0.00,709.000000,,2013-02-04 21:42:00,
2013-02-04 12:02:00,80.0,54.0,-100.00,NE,43,25.0,37.0,41,0.00,,,0.00,971.000000,,2013-02-04 22:02:00,
2013-02-04 12:12:00,80.0,54.0,-100.00,NE,43,25.0,37.0,41,0.00,,,0.00,971.000000,,2013-02-04 22:12:00,
2013-02-04 12:21:00,80.0,54.0,-100.00,NE,43,25.0,37.0,41,0.00,,,0.00,971.000000,,2013-02-04 22:21:00,
2013-02-04 12:32:00,80.0,54.0,-100.00,NE,43,25.0,37.0,41,0.00,,,0.00,971.000000,,2013-02-04 22:32:00,
2013-02-04 12:41:00,80.0,54.0,-100.00,NE,43,25.0,37.0,41,0.00,,,0.00,971.000000,,2013-02-04 22:41:00,
2013-02-04 13:01:00,80.0,54.0,-100.00,NE,47,26.0,37.0,41,0.00,,,0.00,1022.000000,,2013-02-04 23:01:00,
2013-02-04 13:11:00,80.0,54.0,-100.00,NE,47,26.0,37.0,41,0.00,,,0.00,1022.000000,,2013-02-04 23:11:00,
2013-02-04 13:21:00,80.0,54.0,-100.00,NE,47,26.0,37.0,41,0.00,,,0.00,1022.000000,,2013-02-04 23:21:00,
2013-02-04 13:32:00,80.0,54.0,-100.00,NE,47,26.0,37.0,41,0.00,,,0.00,1022.000000,,2013-02-04 23:32:00,
2013-02-04 13:41:00,80.0,54.0,-100.00,NE,47,26.0,37.0,41,0.00,,,0.00,1022.000000,,2013-02-04 23:41:00,
2013-02-04 14:11:00,81.0,55.0,-100.00,NE,55,24.0,37.0,41,0.00,,,0.00,918.000000,,2013-02-05 00:11:00,
2013-02-04 14:21:00,81.0,55.0,-100.00,NE,55,24.0,37.0,41,0.00,,,0.00,918.000000,,2013-02-05 00:21:00,
2013-02-04 14:31:00,81.0,55.0,-100.00,NE,55,24.0,37.0,41,0.00,,,0.00,918.000000,,2013-02-05 00:31:00,
2013-02-04 14:41:00,81.0,55.0,-100.00,NE,55,24.0,37.0,41,0.00,,,0.00,918.000000,,2013-02-05 00:41:00,
2013-02-04 15:01:00,80.0,51.0,-100.00,NE,47,23.0,38.0,37,0.00,,,0.00,891.000000,,2013-02-05 01:01:00,
2013-02-04 15:11:00,80.0,51.0,-100.00,NE,47,23.0,38.0,37,0.00,,,0.00,891.000000,,2013-02-05 01:11:00,
2013-02-04 15:21:00,80.0,51.0,-100.00,NE,47,23.0,38.0,37,0.00,,,0.00,891.000000,,2013-02-05 01:21:00,
2013-02-04 15:32:00,80.0,51.0,-100.00,NE,47,23.0,38.0,37,0.00,,,0.00,891.000000,,2013-02-05 01:32:00,
2013-02-04 15:41:00,80.0,51.0,-100.00,NE,47,23.0,38.0,37,0.00,,,0.00,891.000000,,2013-02-05 01:41:00,
2013-02-04 16:01:00,81.0,54.0,-100.00,North,11,24.0,35.0,39,0.00,,,0.00,729.000000,,2013-02-05 02:01:00,
2013-02-04 16:11:00,81.0,54.0,-100.00,North,11,24.0,35.0,39,0.00,,,0.00,729.000000,,2013-02-05 02:11:00,
2013-02-04 16:21:00,81.0,54.0,-100.00,North,11,24.0,35.0,39,0.00,,,0.00,729.000000,,2013-02-05 02:21:00,
2013-02-04 16:31:00,81.0,54.0,-100.00,North,11,24.0,35.0,39,0.00,,,0.00,729.000000,,2013-02-05 02:31:00,
2013-02-04 16:41:00,81.0,54.0,-100.00,North,11,24.0,35.0,39,0.00,,,0.00,729.000000,,2013-02-05 02:41:00,
2013-02-04 17:11:00,78.0,53.0,-100.00,NNE,14,23.0,34.0,42,0.00,,,0.00,507.000000,,2013-02-05 03:11:00,
2013-02-04 17:21:00,78.0,53.0,-100.00,NNE,14,23.0,34.0,42,0.00,,,0.00,507.000000,,2013-02-05 03:21:00,
2013-02-04 17:31:00,78.0,53.0,-100.00,NNE,14,23.0,34.0,42,0.00,,,0.00,507.000000,,2013-02-05 03:31:00,
2013-02-04 17:41:00,78.0,53.0,-100.00,NNE,14,23.0,34.0,42,0.00,,,0.00,507.000000,,2013-02-05 03:41:00,
2013-02-04 18:01:00,76.0,54.0,-100.00,NE,47,20.0,34.0,46,0.00,,,0.00,245.000000,,2013-02-05 04:01:00,
2013-02-04 18:11:00,76.0,54.0,-100.00,NE,47,20.0,34.0,46,0.00,,,0.00,245.000000,,2013-02-05 04:11:00,
2013-02-04 18:21:00,76.0,54.0,-100.00,NE,47,20.0,34.0,46,0.00,,,0.00,245.000000,,2013-02-05 04:21:00,
2013-02-04 18:31:00,76.0,54.0,-100.00,NE,47,20.0,34.0,46,0.00,,,0.00,245.000000,,2013-02-05 04:31:00,
2013-02-04 18:41:00,76.0,54.0,-100.00,NE,47,20.0,34.0,46,0.00,,,0.00,245.000000,,2013-02-05 04:41:00,
2013-02-04 19:02:00,72.0,53.0,-100.00,NNE,22,18.0,33.0,52,0.00,,,0.00,19.000000,,2013-02-05 05:02:00,
2013-02-04 19:11:00,72.0,53.0,-100.00,NNE,22,18.0,33.0,52,0.00,,,0.00,19.000000,,2013-02-05 05:11:00,
2013-02-04 19:21:00,72.0,53.0,-100.00,NNE,22,18.0,33.0,52,0.00,,,0.00,19.000000,,2013-02-05 05:21:00,
2013-02-04 19:31:00,72.0,53.0,-100.00,NNE,22,18.0,33.0,52,0.00,,,0.00,19.000000,,2013-02-05 05:31:00,
2013-02-04 19:41:00,72.0,53.0,-100.00,NNE,22,18.0,33.0,52,0.00,,,0.00,19.000000,,2013-02-05 05:41:00,
2013-02-04 20:01:00,70.0,56.0,-100.00,NNE,22,19.0,30.0,61,0.00,,,0.00,0.000000,,2013-02-05 06:01:00,
2013-02-04 20:11:00,70.0,56.0,-100.00,NNE,22,19.0,30.0,61,0.00,,,0.00,0.000000,,2013-02-05 06:11:00,
2013-02-04 20:21:00,70.0,56.0,-100.00,NNE,22,19.0,30.0,61,0.00,,,0.00,0.000000,,2013-02-05 06:21:00,
2013-02-04 20:31:00,70.0,56.0,-100.00,NNE,22,19.0,30.0,61,0.00,,,0.00,0.000000,,2013-02-05 06:31:00,
2013-02-04 20:41:00,70.0,56.0,-100.00,NNE,22,19.0,30.0,61,0.00,,,0.00,0.000000,,2013-02-05 06:41:00,
2013-02-04 21:01:00,71.0,55.0,-100.00,North,9,26.0,39.0,57,0.00,,,0.00,0.000000,,2013-02-05 07:01:00,
2013-02-04 21:11:00,71.0,55.0,-100.00,North,9,26.0,39.0,57,0.00,,,0.00,0.000000,,2013-02-05 07:11:00,
2013-02-04 21:22:00,71.0,55.0,-100.00,North,9,26.0,39.0,57,0.00,,,0.00,0.000000,,2013-02-05 07:22:00,
2013-02-04 21:31:00,71.0,55.0,-100.00,North,9,26.0,39.0,57,0.00,,,0.00,0.000000,,2013-02-05 07:31:00,
2013-02-04 21:41:00,71.0,55.0,-100.00,North,9,26.0,39.0,57,0.00,,,0.00,0.000000,,2013-02-05 07:41:00,
2013-02-04 22:01:00,72.0,57.0,-100.00,NE,34,19.0,42.0,59,0.00,,,0.00,0.000000,,2013-02-05 08:01:00,
2013-02-04 22:11:00,72.0,57.0,-100.00,NE,34,19.0,42.0,59,0.00,,,0.00,0.000000,,2013-02-05 08:11:00,
2013-02-04 22:21:00,72.0,57.0,-100.00,NE,34,19.0,42.0,59,0.00,,,0.00,0.000000,,2013-02-05 08:21:00,
2013-02-04 22:31:00,72.0,57.0,-100.00,NE,34,19.0,42.0,59,0.00,,,0.00,0.000000,,2013-02-05 08:31:00,
2013-02-04 22:41:00,72.0,57.0,-100.00,NE,34,19.0,42.0,59,0.00,,,0.00,0.000000,,2013-02-05 08:41:00,
2013-02-04 23:02:00,72.0,57.0,-100.00,NNE,23,22.0,37.0,59,0.00,,,0.00,0.000000,,2013-02-05 09:02:00,
2013-02-04 23:11:00,72.0,57.0,-100.00,NNE,23,22.0,37.0,59,0.00,,,0.00,0.000000,,2013-02-05 09:11:00,
2013-02-04 23:21:00,72.0,57.0,-100.00,NNE,23,22.0,37.0,59,0.00,,,0.00,0.000000,,2013-02-05 09:21:00,
2013-02-04 23:31:00,72.0,57.0,-100.00,NNE,23,22.0,37.0,59,0.00,,,0.00,0.000000,,2013-02-05 09:31:00,
2013-02-04 23:42:00,72.0,57.0,-100.00,NNE,23,22.0,37.0,59,0.00,,,0.00,0.000000,,2013-02-05 09:42:00,